Weather at Fisher's Landing Resort Airstrip [CLOSED]

Public forecast

Using degrees Fahrenheit for public forecast. Weather courtesy of forecast.io.

Closest aviation weather report (METAR) to Fisher's Landing Resort Airstrip

Closest report is Yuma MCAS/Yuma International Airport, 20.5 nm (38.0 km) SSW. Retrieved 2021/01/23 08:57 UTC (1 hour ago):

KNYL 230857Z AUTO 36005KT 10SM -RA CLR 12/07 A2990 RMK AO2 SLP125 P0000 60000 T01220067 53005

Closest aviation forecast (TAF) to Fisher's Landing Resort Airstrip

Forecast is more than 12 hours old.

Closest forecast is Yuma MCAS/Yuma International Airport, 20.5 nm (38.0 km) SSW. Retrieved 2014/04/27 15:15 UTC (7 years ago):

TAF TAF COR KNYL 271500Z 2715/2815 VRB06KT 9999 FEW250 QNH2989INS BECMG 2716/2718 26007KT QNH2978INS BECMG 2806/2808 VRB05KT QNH2981INS AUTOMATED SENSOR METWATCH 2715 TIL 2815 TX22/2723Z TN10/2813Z COR 1545